| time (UTC) | temp F | wind direction | speed MPH | gust MPH | rain 1hr in | rain 24hr in | rain mn in | humidity % | barometer mb |
| 20260506041610 | 70 | 114 | 0.0 | 2.0 | 0.00 | 0.00 | 0.00 | 41 | 1008.5 |
| 20260506040007 | 71 | 209 | 0.0 | 2.0 | 0.00 | 0.00 | 0.00 | 40 | 1008.6 |
| 20260506034506 | 71 | 178 | 0.0 | 3.0 | 0.00 | 0.00 | 0.00 | 40 | 1008.5 |
| 20260506033007 | 71 | 202 | 0.0 | 3.0 | 0.00 | 0.00 | 0.00 | 40 | 1008.5 |
| 20260506031505 | 71 | 198 | 0.0 | 2.0 | 0.00 | 0.00 | 0.00 | 39 | 1008.5 |
| 20260506030004 | 71 | 176 | 0.0 | 2.0 | 0.00 | 0.00 | 0.00 | 38 | 1008.5 |
| 20260506024503 | 71 | 182 | 0.0 | 2.0 | 0.00 | 0.00 | 0.00 | 38 | 1008.5 |
| 20260506023003 | 71 | 180 | 0.0 | 2.0 | 0.00 | 0.00 | 0.00 | 37 | 1008.6 |
| 20260506021503 | 72 | 184 | 0.0 | 3.0 | 0.00 | 0.00 | 0.00 | 36 | 1008.7 |
| 20260506020003 | 72 | 139 | 0.0 | 2.0 | 0.00 | 0.00 | 0.00 | 36 | 1008.5 |
| 20260506014501 | 72 | 181 | 0.0 | 2.0 | 0.00 | 0.00 | 0.00 | 35 | 1008.6 |
| 20260506013001 | 72 | 196 | 0.0 | 2.0 | 0.00 | 0.00 | 0.00 | 35 | 1008.5 |
| 20260506011500 | 73 | 199 | 0.0 | 3.0 | 0.00 | 0.00 | 0.00 | 34 | 1008.3 |
| 20260506004559 | 74 | 180 | 0.0 | 2.0 | 0.00 | 0.00 | 0.00 | 33 | 1008.0 |
| 20260506003059 | 74 | 157 | 0.0 | 2.0 | 0.00 | 0.00 | 0.00 | 33 | 1007.8 |
| 20260506001559 | 76 | 120 | 0.0 | 2.0 | 0.00 | 0.00 | 0.00 | 32 | 1007.6 |
| 20260506000100 | 77 | 150 | 0.0 | 5.0 | 0.00 | 0.00 | 0.00 | 31 | 1007.5 |
| 20260505234557 | 78 | 197 | 0.0 | 2.0 | 0.00 | 0.00 | 0.00 | 31 | 1007.3 |
| 20260505233104 | 78 | 260 | 1.0 | 8.0 | 0.00 | 0.00 | 0.00 | 30 | 1007.2 |
| 20260505231609 | 79 | 155 | 1.0 | 5.0 | 0.00 | 0.00 | 0.00 | 30 | 1007.3 |
| 20260505230055 | 80 | 177 | 1.0 | 6.0 | 0.00 | 0.00 | 0.00 | 30 | 1007.1 |
| 20260505224557 | 80 | 173 | 2.0 | 5.0 | 0.00 | 0.00 | 0.00 | 30 | 1007.1 |
| 20260505223057 | 80 | 203 | 2.0 | 6.0 | 0.00 | 0.00 | 0.00 | 29 | 1007.3 |
| 20260505221559 | 81 | 117 | 1.0 | 8.0 | 0.00 | 0.00 | 0.00 | 27 | 1007.3 |
| 20260505220059 | 81 | 99 | 2.0 | 6.0 | 0.00 | 0.00 | 0.00 | 26 | 1007.2 |
| 20260505214557 | 81 | 234 | 5.0 | 11.0 | 0.00 | 0.00 | 0.00 | 25 | 1007.3 |
| 20260505213052 | 81 | 206 | 2.0 | 8.0 | 0.00 | 0.00 | 0.00 | 24 | 1007.2 |
| 20260505211552 | 82 | 311 | 3.0 | 13.0 | 0.00 | 0.00 | 0.00 | 23 | 1007.1 |
| 20260505210051 | 82 | 262 | 2.0 | 10.0 | 0.00 | 0.00 | 0.00 | 24 | 1007.1 |
| 20260505204551 | 82 | 87 | 4.0 | 13.0 | 0.00 | 0.00 | 0.00 | 24 | 1007.1 |
| 20260505203107 | 81 | 221 | 3.0 | 12.0 | 0.00 | 0.00 | 0.00 | 25 | 1007.2 |
| 20260505201557 | 82 | 179 | 2.0 | 15.0 | 0.00 | 0.00 | 0.00 | 25 | 1007.3 |
| 20260505200052 | 82 | 186 | 2.0 | 8.0 | 0.00 | 0.00 | 0.00 | 25 | 1007.3 |
| 20260505194546 | 83 | 172 | 3.0 | 9.0 | 0.00 | 0.00 | 0.00 | 25 | 1007.5 |
| 20260505193044 | 83 | 215 | 3.0 | 10.0 | 0.00 | 0.00 | 0.00 | 26 | 1007.5 |
| 20260505191545 | 82 | 252 | 3.0 | 10.0 | 0.00 | 0.00 | 0.00 | 27 | 1007.6 |
| 20260505190041 | 83 | 121 | 4.0 | 10.0 | 0.00 | 0.00 | 0.00 | 27 | 1008.0 |
| 20260505184539 | 82 | 143 | 3.0 | 14.0 | 0.00 | 0.00 | 0.00 | 28 | 1008.2 |
| 20260505183037 | 82 | 107 | 2.0 | 8.0 | 0.00 | 0.00 | 0.00 | 28 | 1008.3 |
| 20260505181542 | 81 | 146 | 3.0 | 10.0 | 0.00 | 0.00 | 0.00 | 30 | 1008.4 |
| 20260505180038 | 80 | 151 | 1.0 | 8.0 | 0.00 | 0.00 | 0.00 | 32 | 1008.5 |
| 20260505174540 | 82 | 192 | 2.0 | 8.0 | 0.00 | 0.00 | 0.00 | 31 | 1008.9 |
| 20260505173030 | 82 | 159 | 1.0 | 7.0 | 0.00 | 0.00 | 0.00 | 32 | 1008.9 |
| 20260505171527 | 81 | 163 | 2.0 | 7.0 | 0.00 | 0.00 | 0.00 | 34 | 1009.1 |
| 20260505170025 | 81 | 209 | 2.0 | 8.0 | 0.00 | 0.00 | 0.00 | 33 | 1009.4 |
| 20260505164523 | 80 | 260 | 2.0 | 8.0 | 0.00 | 0.00 | 0.00 | 35 | 1009.6 |
| 20260505163029 | 80 | 210 | 2.0 | 9.0 | 0.00 | 0.00 | 0.00 | 34 | 1009.7 |
| 20260505161521 | 80 | 157 | 1.0 | 8.0 | 0.00 | 0.00 | 0.00 | 35 | 1009.9 |
| 20260505153013 | 77 | 168 | 2.0 | 6.0 | 0.00 | 0.00 | 0.00 | 38 | 1010.6 |
| 20260505151517 | 77 | 308 | 2.0 | 7.0 | 0.00 | 0.00 | 0.00 | 37 | 1010.6 |
| 20260505140110 | 73 | 146 | 1.0 | 4.0 | 0.00 | 0.00 | 0.00 | 44 | 1010.4 |
| 20260505124539 | 65 | 185 | 0.0 | 3.0 | 0.00 | 0.00 | 0.00 | 55 | 1011.1 |
| 20260505123035 | 64 | 195 | 0.0 | 2.0 | 0.00 | 0.00 | 0.00 | 57 | 1011.3 |
| 20260505121532 | 63 | 184 | 0.0 | 2.0 | 0.00 | 0.00 | 0.00 | 60 | 1011.5 |
| 20260505120028 | 62 | 188 | 0.0 | 2.0 | 0.00 | 0.00 | 0.00 | 60 | 1011.5 |
| 20260505114526 | 60 | 173 | 0.0 | 0.0 | 0.00 | 0.00 | 0.00 | 66 | 1011.4 |
| 20260505113024 | 59 | 173 | 0.0 | 0.0 | 0.00 | 0.00 | 0.00 | 67 | 1011.2 |
| 20260505111523 | 59 | 173 | 0.0 | 2.0 | 0.00 | 0.00 | 0.00 | 68 | 1011.0 |
| 20260505101518 | 58 | 170 | 0.0 | 2.0 | 0.00 | 0.00 | 0.00 | 68 | 1010.2 |
| 20260505100018 | 58 | 200 | 0.0 | 2.0 | 0.00 | 0.00 | 0.00 | 67 | 1010.1 |
| 20260505094511 | 59 | 201 | 0.0 | 2.0 | 0.00 | 0.00 | 0.00 | 67 | 1009.8 |
| 20260505093024 | 58 | 207 | 0.0 | 3.0 | 0.00 | 0.00 | 0.00 | 69 | 1009.8 |
| 20260505091510 | 58 | 200 | 0.0 | 3.0 | 0.00 | 0.00 | 0.00 | 69 | 1009.9 |
| 20260505090010 | 58 | 205 | 0.0 | 2.0 | 0.00 | 0.00 | 0.00 | 70 | 1009.7 |
| 20260505084509 | 57 | 193 | 0.0 | 2.0 | 0.00 | 0.00 | 0.00 | 73 | 1009.7 |
| 20260505083008 | 55 | 188 | 0.0 | 0.0 | 0.00 | 0.00 | 0.00 | 76 | 1009.7 |
| 20260505081507 | 55 | 188 | 0.0 | 2.0 | 0.00 | 0.00 | 0.00 | 77 | 1009.8 |
| 20260505080006 | 55 | 188 | 0.0 | 1.0 | 0.00 | 0.00 | 0.00 | 78 | 1009.7 |
| 20260505074507 | 55 | 188 | 0.0 | 0.0 | 0.00 | 0.00 | 0.00 | 78 | 1009.6 |
| 20260505073004 | 55 | 188 | 0.0 | 0.0 | 0.00 | 0.00 | 0.00 | 78 | 1009.5 |
| 20260505071503 | 55 | 188 | 0.0 | 0.0 | 0.00 | 0.00 | 0.00 | 78 | 1009.4 |
| 20260505070003 | 55 | 188 | 0.0 | 2.0 | 0.00 | 0.00 | 0.00 | 79 | 1009.5 |
| 20260505064600 | 55 | 188 | 0.0 | 0.0 | 0.00 | 0.00 | 0.00 | 79 | 1009.5 |
| 20260505063058 | 55 | 188 | 0.0 | 0.0 | 0.00 | 0.00 | 0.00 | 79 | 1009.6 |
| 20260505061602 | 55 | 188 | 0.0 | 0.0 | 0.00 | 0.00 | 0.00 | 79 | 1009.6 |
| 20260505060055 | 56 | 188 | 0.0 | 2.0 | 0.00 | 0.00 | 0.00 | 77 | 1009.6 |
| 20260505054553 | 56 | 188 | 0.0 | 2.0 | 0.00 | 0.00 | 0.00 | 77 | 1009.6 |
| 20260505053059 | 56 | 188 | 0.0 | 0.0 | 0.00 | 0.00 | 0.00 | 78 | 1009.5 |
| 20260505051548 | 57 | 188 | 0.0 | 0.0 | 0.00 | 0.00 | 0.00 | 76 | 1009.5 |